Regional Weather Roundup
Issued by NWS Bismarck, ND

Home | Current Version | Previous Version | Text Only | Print | Product List | Glossary On
Versions: 1 2 3 4 5 6 7 8 9 10 11 12 13 14 15 16 17 18 19 20 21 22 23 24 25 26 27 28 29 30 31 32 33 34 35 36 37 38 39 40 41 42 43 44 45 46 47 48 49 50
000
ASUS43 KBIS 290759
RWRBIS

NWR BROADCAST TEXT
NATIONAL WEATHER SERVICE BISMARCK ND
200 AM CST SAT NOV 29 2014

NOTE: "FAIR" INDICATES FEW OR NO CLOUDS BELOW 12,000 FEET WITH NO
SIGNIFICANT WEATHER AND/OR OBSTRUCTIONS TO VISIBILITY.


CITY           SKY/WX    TMP DP  RH WIND       PRES   REMARKS
WILLISTON      CLOUDY    20  14  77 NW17      29.47R WCI   5
MINOT          CLOUDY    12   7  80 NW7       29.41R WCI   1
MINOT AFB      NOT AVBL
BISMARCK       CLOUDY    23  19  85 NE6       29.37F WCI  16
DICKINSON      MOCLDY    34  28  80 NW13      29.35R
GARRISON         N/A     18  15  88 NE3       29.36F
HETTINGER ARPT CLEAR     33  27  78 CALM      29.36F
JAMESTOWN      NOT AVBL
CARRINGTON     PTSUNNY   16  16 100 SE12      29.40F WCI   3
CROSBY         CLOUDY    14  14 100 NW14      29.48R WCI  -1
$$

CITY           SKY/WX    TMP DP  RH WIND       PRES   REMARKS
GRAND FORKS    CLOUDY    18  14  84 S12       29.48F WCI   5
GRAND FORKS AF NOT AVBL
DEVILS LAKE    CLOUDY    16   7  67 CALM      29.42S
FARGO          CLOUDY    22  18  85 S15       29.50F WCI   9
GRAFTON        CLOUDY    16  14  93 S8        29.51F WCI   5
$$

CITY           SKY/WX    TMP DP  RH WIND       PRES   REMARKS
ABERDEEN       MOCLDY    24  20  84 S6        29.44F WCI  17
MOBRIDGE       PTCLDY    27  23  85 SE8       29.36F WCI  19
BUFFALO          N/A     42  25  50 W10       29.31F
RAPID CITY     CLEAR     57  16  20 W20G31    29.45F
GLASGOW        CLOUDY     6   1  80 NW20      29.58R WCI -14
SIDNEY         CLOUDY    25  21  86 CALM      29.50R
WOLF POINT     CLOUDY    12   5  73 NW13      29.57R WCI  -3
GLENDIVE       CLOUDY    27  25  93 N14       29.46R WCI  15
MILES CITY     CLOUDY    25  24  96 N18       29.46R FOG     WCI  11
BAKER          CLOUDY    31  29  92 NW14      29.40R FOG
$$

CITY           SKY/WX    TMP DP  RH WIND       PRES   REMARKS
BILLINGS       PTCLDY    24  22  91 NE18      29.41R WCI  10
GREAT FALLS    CLOUDY    -1  -8  72 NW14      29.63R WCI -20
$$



USA.gov is the U.S. government's official web portal to all federal, state and local government web resources and services.